2017 Utah State Girls Power Merge

This content requires a MileSplit Pro plan.
Join Now and select any plan for instant access!

MileSplit Pro
Join Now

The Utah girls state meet merge had a natural break in the scoring between the 22nd and 23rd team, so this power merge shows 22 teams. Individual scoring is on this page; team scoring is on the next page.

Three Mile Run

PLACEATHLETEGRADETEAMTIMEPOINTS
1Mckenna Lee2018Weber17:49.00 1
2Karli Branch2019Corner Canyon17:51.40 2
3Alissa Fielding2018Mountain View17:54.30 3
4Bailey Brinkerhoff2019Desert Hills High School18:07.50 4
5Heidi Sumsion2021Springville18:07.80 5
6Abby Jensen2019Westlake18:11.60 6
7Haley Tanne2018Pleasant Grove18:12.20 7
8Kalii Caldwell2019Ogden18:14.60 8
9Camille Winterton2018Skyline High School18:15.40 9
10Reagan Gardner2021Lone Peak18:17.60 10
11Lexi Wright2018American Fork18:19.80 11
12Eliza Arrington2021Lone Peak18:22.00 12
13Jessica Hill2020Pine View18:22.60 13
14Zoe Hales2018Stansbury High School18:23.10 14
15Harley Taylor2019Cedar High School18:23.40 15
16Kiana Campbell2018Maple Mountain High School18:23.60 16
17Helena Miyazawa2019Mountain View18:23.70 17
18Mic Webster2019Cedar High School18:26.10 18
19Mazzie Melaney2018Fremont18:26.20 19
20Sami Lee2020Weber18:27.50 20
21Willow Collins2021Corner Canyon18:28.90 21
22Mya Mckown2019Pleasant Grove18:31.60 22
23Katie Duckworth2018Olympus18:32.40 23
24Mica Rivera2018Herriman High18:32.80 24
25Porshe Eismann2020Westlake18:37.50 25
26Allie Warner2018Mountain View18:39.20 26
27AnnaBeth Templeman2021Springville18:40.60 27
28Ruth Wright2021Davis High School18:41.80 28
29Lily Poulton2019Desert Hills High School18:43.00 29
30Samantha Jacobson2018Riverton18:45.20 30
31Grace Burnett2019Skyline High School18:45.30 31
32Skye Jeppson2018Pleasant Grove18:49.70 32
33Madison Moffit2018Timpanogos18:50.10 33
34Ellie Lundgreen2019Davis High School18:52.80 34
35Kate Thomas2020Olympus18:57.80 35
36Camille Wirthlin2018Maple Mountain High School19:02.70 36
37Samantha Stokes2020American Fork19:03.50 37
38Monet Winger2020Lone Peak19:04.70 38
39Rachel Winterton2020Skyline High School19:05.00 39
40Megan Terry2019Fremont19:05.10 40
41Alli Baker2021Pine View19:05.40 41
42Trinity Schimbeck2019Desert Hills High School19:07.70 42
43Kaysie Klemic2019Cedar High School19:08.30 43
44Caroline Clements2018Pine View19:09.50 44
45Madeline English2018Davis High School19:11.50 45
46Taylor Viertel2018Timpanogos19:12.00 46
47Erika Olson2019Pleasant Grove19:12.50 47
48Ellie Bushar2018Pine View19:15.40 48.5
48Hailey Hess2019American Fork19:15.40 48.5
50Aniya Bobo2019Weber19:16.30 50
51Meg Nielsen2018Herriman High19:16.40 51
52Madison Hess2018American Fork19:17.80 52
53Maddy Boulton2019Timpview19:22.50 53
54Tess McInelly2018Maple Mountain High School19:22.80 54
55Rylee Holt2019Pine View19:23.90 55
56Abby Rasmussen2019Olympus19:24.30 56
57Jacey Finch2018Pine View19:24.70 57
58Christina Wood2020Mountain View19:24.90 58
59Eliza Beazer0Stansbury High School19:25.40 59
60Abby Linford2018Skyline High School19:26.10 60
61Madison Hafen2019Lone Peak19:26.90 61
62Kallyn Chynoweth2020Corner Canyon19:29.60 62
63Sara Diener2018Corner Canyon19:30.50 63
64Annicka Perry2018Maple Mountain High School19:31.10 64
65Ella Park2019Springville19:33.30 65
66Elisabeth Ferrell2021Davis High School19:34.20 66
67Lily Nettesheim2019American Fork19:36.00 67
68Abby Barrus2020Westlake19:37.00 68
69Ashley Rothaug0Maple Mountain High School19:37.30 69
70Madison Seegmiller2020Riverton19:37.60 70
71Eliza Sybrowski2019Timpview19:37.90 71
72Bailee Gillies2020Timpanogos19:38.30 72
73Kate Allred2020Ogden19:38.40 73
74Sadie Tayler0Timpview19:38.80 74
75Mariah Skinner2019Springville19:39.30 75
76Brittin Roth2018Westlake19:40.10 76
77Lexi Jonart2021Skyline High School19:40.50 77
78Becca Romney2021Herriman High19:41.40 78
79Nicole Sheridan2018Pleasant Grove19:46.30 79
80Rosalind Schraedel2019Davis High School19:47.00 80
81Abby Benson2021Timpanogos19:47.20 81
82Izzy Wall2020Skyline High School19:47.60 82.5
82Sydney Hedquist2021Davis High School19:47.60 82.5
84Liberty Howell2020Riverton19:49.00 84
85Danielle Shock2020Westlake19:51.00 85
86Alexia Larsen2020Corner Canyon19:52.40 86
87Kate Marberger2021Olympus19:52.80 87
88Kaleigh Southwick2018Weber19:54.20 88
89Bonita Gray2021Ogden19:54.80 89
90Amanda Marchant2020Desert Hills High School19:56.90 90
91Macie Barney2019Desert Hills High School20:00.40 91
92Mackenzie Hess2019American Fork20:02.40 92
93Anna Carter2019Herriman High20:02.60 93
94Sylvia Brown2019Pine View20:03.90 94
95Maryn Granger2021Corner Canyon20:05.00 95
96Shelby Archer2020Stansbury High School20:05.70 96
97Raechel Hunsaker2018Timpanogos20:06.00 97
98Samantha Olson2021Fremont20:07.70 98
99Lauren Leukenga2020Desert Hills High School20:07.80 99
100Alena Starks2019Weber20:09.00 100
101Elizibeth Wilcox2019Timpview20:10.40 101
102Eden Rasmussen2018Olympus20:11.20 102
103Kelsi Lindley2019Mountain View20:11.40 103
104Kate Stuart2018Davis High School20:12.90 104
105Sasha Willie2021Weber20:13.30 105
106Brooklyn Hopkins2020American Fork20:16.80 106
107Natalie Walker2020Corner Canyon20:19.30 107
108Anna Hansen2018Westlake20:21.10 108
109Brooke Mashburn2020Timpanogos20:21.70 109
110Elena Allen2021Stansbury High School20:23.10 110
111Mckenna Rogers2019Stansbury High School20:23.40 111
112Ashley Chugg2018Fremont20:24.20 112
113Brook Larson2019Ogden20:24.70 113
114Rachel Seeley2019Lone Peak20:25.00 114
115Melanie Gomez2019Pleasant Grove20:27.70 115
116Morgan Farley2018Timpanogos20:29.50 116
117Mackenzie Meldrum2020Lone Peak20:30.50 117
118Emma Barnett2020Olympus20:31.00 118
119Saylor Lighten2019Riverton20:36.80 119
120Avery Baldwin2019Springville20:37.40 120
121Summer Bryson2019Cedar High School20:37.60 121
122Haley Rountree2019Desert Hills High School20:38.10 122
123Hannah Pope2020Weber20:38.30 123
124Makenzi Smith2020Mountain View20:39.90 124
125Clarissa Palmer2018Cedar High School20:41.80 125
126Katelyn Williams2020Riverton20:45.40 126
127Allison Rowley2018Westlake20:47.60 127
128Lydia Felix2021Springville20:47.70 128
129Brooklynn Gee2019Riverton20:47.90 129
130Clara Dehlin2019Olympus20:50.90 130
131Abbey Blair2019Ogden20:51.70 131
132Kate Koger2018Maple Mountain High School20:51.90 132
133Emma Cummings2018Herriman High20:56.80 133
134Kaitlyn Gee2019Springville20:58.70 134
135Masche Osborn2018Stansbury High School20:59.20 135
136Caryn Rawlings2018Timpview20:59.30 136
137Aleahlani Farnsworth2018Maple Mountain High School21:01.30 137
138Miranda Allen2019Stansbury High School21:03.70 138
139Shelby Stubbs2019Timpview21:09.90 139
140Abby Trudeau2019Ogden21:12.90 140
141Remington Nash2020Cedar High School21:13.50 141
142Krystal Kemp2018Herriman High21:15.80 142
143Cassee Morse2018Fremont21:23.10 143
144Blaklee Butler2021Skyline High School21:23.90 144.5
144Katie Crabtree2021Ogden21:23.90 144.5
146Paige Rousey2020Herriman High21:24.40 146
147Brinley Hess2020Cedar High School21:24.90 147
148Brynlee Bartlome2019Riverton21:26.20 148
149Hallie Morris2021Fremont21:30.00 149
150Makena Harbertson2020Pleasant Grove21:36.70 150
151Sedona Hansen0Timpview21:49.40 151
152Jacelin Clayton2019Mountain View22:27.90 152
153Rachel Hales2018Fremont22:28.40 153



Comments